Location: Little Arabia
(41.4620°N, 81.7687°W)
Time: 19:58:23
(UTC+00:00)

Cosmos 1812 Rocket - Pass Details

Date: 29 October 2020
Orbit: 605 x 632 km, 82.5° (Epoch: 03 December)

Event Time Altitude Azimuth Distance (km) Brightness Sun altitude
Rises 23:47:44 0° 175° (S) 2,890 7.0 -16.0°
Reaches altitude 10° 23:49:59 10° 171° (S) 1,984 6.1 -16.4°
Maximum altitude 23:54:16 55° 94° (E) 748 3.6 -17.2°
Drops below altitude 10° 23:58:33 10° 17° (NNE) 1,982 6.0 -18.0°
Sets 00:00:48 0° 13° (NNE) 2,888 6.8 -18.4°
